sat.trackr.live / text

‹ back to catalog

YAOGAN-30 07B

NORAD 45461 · 2020-021B

PAYLOAD ACTIVE UNKNOWN

§ Identity

Operator
Country
PRC
Launch date
2020-03-24
Launch site
XICLF
Launch vehicle
Mass (kg)
RCS (m²)

External: N2YO · Heavens-Above · Gunter

§ Orbital elements

Epoch: 2026-05-25T00:30:23.846976Z

Period
95.83 min
Inclination
34.9953°
Eccentricity
0.0002508
Mean motion
15.02592125 rev/d
Perigee alt
557.2 km
Apogee alt
560.6 km
Semi-major
6,937.0 km
B*
1.7746e-4
RAAN
351.6693°
Arg perigee
348.7387°
Mean anomaly
11.3265°
Rev number
33,700

§ Raw data

YAOGAN-30 07B1 45461U 20021B   26145.02110934  .00002381  00000+0  17746-3 0  99942 45461  34.9953 351.6693 0002508 348.7387  11.3265 15.02592125337006

JSON: /api/v1/satellites/45461 · /tle

For live sub-satellite position, see the globe view (requires WebGL).

§ Visibility from observer

Set your observer location to see the next 7 days of passes ≥ 10°. The values pass through the URL so the page stays shareable.

No JS? Fill the form by hand. The geolocation button needs JavaScript.